Location: Cuzcurrita-R�o Tir�n
(42.5415°N, 2.9642°W)
Time: 20:41:36
(UTC+00:00)

Cosmos 2297 Rocket - Pass Details

Date: 17 January 2021
Orbit: 841 x 842 km, 71.0° (Epoch: 02 March)

Event Time Altitude Azimuth Distance (km) Brightness Sun altitude
Rises 17:24:39 0° 240° (WSW) 3,387 8.1 -3.8°
Reaches altitude 10° 17:27:31 10° 253° (WSW) 2,456 6.5 -4.3°
Maximum altitude 17:32:06 25° 308° (NW) 1,640 4.1 -5.1°
Drops below altitude 10° 17:36:43 10° 2° (N) 2,466 4.4 -5.9°
Sets 17:39:37 0° 16° (NNE) 3,405 5.0 -6.4°
